| time (UTC) | temp F | wind direction | speed MPH | gust MPH | rain 1hr in | rain 24hr in | rain mn in | humidity % | barometer mb |
| 20260504024503 | 73 | 191 | 17.0 | 18.0 | 0.00 | 0.00 | 0.00 | 34 | 1055.5 |
| 20260504021503 | 74 | 194 | 9.0 | 20.0 | 0.00 | 0.00 | 0.00 | 33 | 1055.5 |
| 20260504020003 | 75 | 196 | 15.0 | 20.0 | 0.00 | 0.00 | 0.00 | 32 | 1055.2 |
| 20260504014502 | 75 | 174 | 13.0 | 21.0 | 0.00 | 0.00 | 0.00 | 31 | 1055.2 |
| 20260504013004 | 76 | 200 | 10.0 | 15.0 | 0.00 | 0.00 | 0.00 | 30 | 1055.2 |
| 20260504012003 | 76 | 186 | 14.0 | 21.0 | 0.00 | 0.00 | 0.00 | 30 | 1055.2 |
| 20260504010503 | 77 | 182 | 16.0 | 18.0 | 0.00 | 0.00 | 0.00 | 28 | 1055.2 |
| 20260504005004 | 78 | 205 | 11.0 | 21.0 | 0.00 | 0.00 | 0.00 | 27 | 1055.2 |
| 20260504003503 | 79 | 219 | 11.0 | 22.0 | 0.00 | 0.00 | 0.00 | 26 | 1055.2 |
| 20260504002003 | 80 | 217 | 17.0 | 21.0 | 0.00 | 0.00 | 0.00 | 25 | 1055.2 |
| 20260504000503 | 81 | 209 | 11.0 | 19.0 | 0.00 | 0.00 | 0.00 | 25 | 1055.5 |
| 20260503235003 | 81 | 189 | 11.0 | 18.0 | 0.00 | 0.00 | 0.00 | 25 | 1055.5 |
| 20260503233503 | 82 | 215 | 14.0 | 20.0 | 0.00 | 0.00 | 0.00 | 24 | 1055.5 |
| 20260503232003 | 82 | 250 | 14.0 | 20.0 | 0.00 | 0.00 | 0.00 | 24 | 1055.5 |
| 20260503230503 | 82 | 172 | 9.0 | 22.0 | 0.00 | 0.00 | 0.00 | 23 | 1055.9 |
| 20260503225004 | 82 | 226 | 20.0 | 22.0 | 0.00 | 0.00 | 0.00 | 22 | 1055.9 |
| 20260503223503 | 83 | 209 | 16.0 | 23.0 | 0.00 | 0.00 | 0.00 | 23 | 1055.9 |
| 20260503222502 | 84 | 180 | 17.0 | 17.0 | 0.00 | 0.00 | 0.00 | 21 | 1056.2 |
| 20260503221003 | 83 | 216 | 23.0 | 28.0 | 0.00 | 0.00 | 0.00 | 22 | 1056.2 |
| 20260503215503 | 84 | 189 | 15.0 | 21.0 | 0.00 | 0.00 | 0.00 | 22 | 1056.2 |
| 20260503214003 | 84 | 205 | 15.0 | 22.0 | 0.00 | 0.00 | 0.00 | 23 | 1056.6 |
| 20260503211003 | 84 | 194 | 12.0 | 22.0 | 0.00 | 0.00 | 0.00 | 21 | 1056.9 |
| 20260503210003 | 84 | 208 | 17.0 | 21.0 | 0.00 | 0.00 | 0.00 | 20 | 1057.2 |
| 20260503204503 | 83 | 245 | 16.0 | 21.0 | 0.00 | 0.00 | 0.00 | 22 | 1057.2 |
| 20260503203003 | 85 | 200 | 14.0 | 20.0 | 0.00 | 0.00 | 0.00 | 22 | 1057.6 |
| 20260503201503 | 84 | 191 | 15.0 | 22.0 | 0.00 | 0.00 | 0.00 | 24 | 1057.9 |
| 20260503200004 | 84 | 231 | 9.0 | 16.0 | 0.00 | 0.00 | 0.00 | 22 | 1058.2 |
| 20260503194503 | 84 | 218 | 9.0 | 20.0 | 0.00 | 0.00 | 0.00 | 20 | 1058.6 |
| 20260503193003 | 84 | 173 | 20.0 | 20.0 | 0.00 | 0.00 | 0.00 | 20 | 1058.6 |
| 20260503191503 | 84 | 208 | 16.0 | 20.0 | 0.00 | 0.00 | 0.00 | 21 | 1058.9 |
| 20260503190003 | 84 | 212 | 16.0 | 18.0 | 0.00 | 0.00 | 0.00 | 21 | 1059.3 |
| 20260503184503 | 83 | 225 | 13.0 | 18.0 | 0.00 | 0.00 | 0.00 | 20 | 1059.3 |
| 20260503183003 | 83 | 208 | 8.0 | 16.0 | 0.00 | 0.00 | 0.00 | 24 | 1059.6 |
| 20260503181504 | 82 | 217 | 12.0 | 17.0 | 0.00 | 0.00 | 0.00 | 26 | 1059.9 |
| 20260503180003 | 82 | 213 | 13.0 | 13.0 | 0.00 | 0.00 | 0.00 | 27 | 1060.3 |
| 20260503174503 | 81 | 260 | 10.0 | 14.0 | 0.00 | 0.00 | 0.00 | 28 | 1060.3 |
| 20260503173003 | 80 | 221 | 13.0 | 16.0 | 0.00 | 0.00 | 0.00 | 30 | 1060.6 |
| 20260503171503 | 80 | 202 | 11.0 | 15.0 | 0.00 | 0.00 | 0.00 | 31 | 1061.0 |
| 20260503130503 | 59 | 199 | 9.0 | 14.0 | 0.00 | 0.00 | 0.00 | 63 | 1061.3 |
| 20260503080503 | 58 | 136 | 9.0 | 12.0 | 0.00 | 0.00 | 0.00 | 57 | 1062.3 |
| 20260503072502 | 59 | 158 | 6.0 | 9.0 | 0.00 | 0.00 | 0.00 | 54 | 1063.0 |
| 20260503071003 | 59 | 176 | 7.0 | 11.0 | 0.00 | 0.00 | 0.00 | 54 | 1063.0 |
| 20260503054504 | 60 | 96 | 5.0 | 7.0 | 0.00 | 0.00 | 0.00 | 51 | 1063.3 |
| 20260503053004 | 60 | 130 | 3.0 | 4.0 | 0.00 | 0.00 | 0.00 | 51 | 1063.3 |
| 20260503050008 | 60 | 151 | 3.0 | 5.0 | 0.00 | 0.00 | 0.00 | 51 | 1063.3 |
| 20260503044503 | 60 | 139 | 3.0 | 6.0 | 0.00 | 0.00 | 0.00 | 51 | 1063.0 |
| 20260503043003 | 60 | 137 | 3.0 | 7.0 | 0.00 | 0.00 | 0.00 | 52 | 1063.0 |
| 20260503041503 | 60 | 171 | 3.0 | 6.0 | 0.00 | 0.00 | 0.00 | 52 | 1063.0 |
| 20260503040003 | 61 | 345 | 0.0 | 2.0 | 0.00 | 0.00 | 0.00 | 51 | 1063.0 |
| 20260503034503 | 62 | 70 | 2.0 | 3.0 | 0.00 | 0.00 | 0.00 | 51 | 1063.3 |
| 20260503033003 | 62 | 19 | 2.0 | 4.0 | 0.00 | 0.00 | 0.00 | 50 | 1063.3 |
| 20260503031503 | 63 | 123 | 6.0 | 6.0 | 0.00 | 0.00 | 0.00 | 48 | 1063.0 |
| 20260503030502 | 63 | 141 | 4.0 | 5.0 | 0.00 | 0.00 | 0.00 | 47 | 1063.0 |